User: anonymous   Login
Location: Muenchen
(48.1800°N, 11.5800°E)
Time: 05:05:25
(UTC+02:00)
Language:

Cosmos 2233 Rocket - Orbit

View from above orbital plane
View from above orbital plane
View from above satellite
View from above satellite

Ground track
Ground track

The orbit data is extracted from the following two-line orbital elements,

1 22488U 93008B   15239.90133331 +.00000119 +00000-0 +10382-3 0  9995
2 22488 082.9425 209.0297 0023859 273.3086 141.6713 13.77680945133191
Epoch (UTC): 27 August 2015 21:37:55
Eccentricity: 0.0023859
inclination: 82.9425°
perigee height: 954 km
apogee height: 989 km
right ascension of ascending node: 209.0297°
argument of perigee: 273.3086°
revolutions per day: 13.77680945
mean anomaly at epoch: 141.6713°
orbit number at epoch: 13319

The dashed part of the orbit path shows where the satellite is in the earth's shadow,  

DLR